[[{"header":{"parameterUnit":"m.s-1","parameterCategory":1,"la1":30.2992,"la2":30.254,"lo1":-89.0895,"lo2":-89.0443,"dy":0.0025,"dx":0.0025,"nx":19,"ny":19,"refTime":"2026-04-12T21:00:00:Z","depth":0,"parameterNumber":2,"parameterNumberName":"U-component_of_WINDS"},"data":[0,0,0,-1.1976,-1.1978,-1.2038,-1.2038,-1.2115,-1.2115,0,0,0,0,0,0,0,0,0,0,0,-1.1957,-1.1957,-1.1976,-1.1978,-1.2038,-1.2038,-1.2114,-1.2115,0,0,0,0,0,0,0,0,0,0,0,-1.1956,-1.1957,-1.1957,-1.1978,-1.2038,-1.2038,-1.2114,-1.207,0,0,0,0,0,0,0,0,0,0,-1.2012,-1.1991,-1.1957,-1.1957,-1.1978,-1.2038,-1.2038,-1.2067,-1.2072,-1.2087,0,-1.2097,0,-1.2107,-1.212,-1.212,0,0,0,-1.198,-1.1986,-1.2004,-1.1957,-1.1979,-1.2037,-1.2011,-1.207,-1.2076,-1.2093,-1.2098,-1.2101,-1.2108,-1.2121,-1.2121,-1.2192,-1.2192,0,0,-1.1977,-1.1967,-1.2,-1.2008,-1.1996,-1.2009,-1.2013,-1.2074,-1.2079,-1.2098,-1.2103,-1.211,-1.2121,-1.2122,-1.2191,-1.2192,0,0,0,-1.1966,-1.1964,-1.1981,-1.2005,-1.2015,-1.2011,-1.2015,-1.2077,-1.2083,-1.2104,-1.2111,-1.2122,-1.2122,-1.2191,-1.2191,-1.2192,0,0,0,-1.1964,-1.1958,-1.1979,-1.1974,-1.2014,-1.2046,-1.2017,-1.2078,-1.2085,-1.211,-1.2122,-1.2123,-1.2191,-1.2191,-1.2192,-1.2194,0,0,0,-1.1953,-1.1957,-1.1964,-1.1973,-1.1998,-1.2045,-1.2055,-1.208,-1.209,-1.212,-1.2123,-1.2191,-1.2191,-1.2191,-1.2194,-1.221,0,0,0,-1.194,-1.1965,-1.1964,-1.1995,-1.1998,-1.2045,-1.2055,-1.2091,-1.2117,-1.2122,-1.2191,-1.2191,-1.2191,-1.2193,-1.2209,-1.2222,-1.2226,0,0,-1.1966,-1.1968,-1.1987,-1.1988,-1.2032,-1.2036,-1.2082,-1.2117,-1.213,-1.2171,-1.2173,-1.2192,-1.2194,-1.221,-1.2252,-1.2255,0,0,0,-1.1992,-1.2006,-1.202,-1.2043,-1.2069,-1.2092,-1.2121,-1.2134,-1.2169,-1.2148,-1.2202,-1.2204,-1.2214,-1.222,-1.2223,-1.2232,-1.2194,-1.2194,-1.2194,-1.2016,-1.2029,-1.2062,-1.2083,-1.2106,-1.2135,-1.2156,-1.2179,-1.2187,-1.22,-1.2212,-1.2236,-1.2243,-1.2245,-1.2254,-1.222,-1.222,-1.222,-1.222,-1.2056,-1.2077,-1.2087,-1.2121,-1.2137,-1.2167,-1.2196,-1.2201,-1.2233,-1.2228,-1.2237,-1.223,-1.2248,-1.2257,-1.222,-1.222,-1.222,-1.222,-1.222,-1.2073,-1.2086,-1.21,-1.2135,-1.2162,-1.2183,-1.2212,-1.2226,-1.2239,-1.2248,-1.2263,-1.2263,-1.2265,-1.2254,-1.2254,-1.2254,-1.2254,-1.2254,-1.2254,-1.2085,-1.2101,-1.2123,-1.2152,-1.2169,-1.2193,-1.2222,-1.224,-1.2264,-1.2271,-1.2272,-1.2279,-1.2246,-1.2238,-1.2256,-1.2255,-1.2255,-1.2255,-1.2255,-1.2122,-1.2115,-1.2149,-1.2166,-1.2201,-1.2227,-1.2243,-1.2278,-1.2295,-1.2309,-1.2315,-1.2288,-1.2291,-1.2289,-1.2283,-1.2311,-1.2311,-1.2311,-1.2311,-1.2136,-1.2139,-1.2176,-1.2202,-1.2229,-1.2247,-1.2287,-1.231,-1.2334,-1.2345,-1.2343,-1.2335,-1.2332,-1.2337,-1.2334,-1.2328,-1.2368,-1.2368,-1.2368,-1.216,-1.2165,-1.2195,-1.2216,-1.2244,-1.2269,-1.2307,-1.2338,-1.2364,-1.237,-1.2355,-1.2352,-1.234,-1.2335,-1.2341,-1.2336,-1.2325,0,0]},{"header":{"parameterUnit":"m.s-1","parameterCategory":1,"la1":30.2992,"la2":30.254,"lo1":-89.0895,"lo2":-89.0443,"dy":0.0025,"dx":0.0025,"nx":19,"ny":19,"refTime":"2026-04-12T21:00:00:Z","depth":0,"parameterNumber":3,"parameterNumberName":"V-component_of_WINDS"},"data":[0,0,0,4.5044,4.5046,4.5152,4.5153,4.5298,4.53,0,0,0,0,0,0,0,0,0,0,0,4.5022,4.5024,4.5044,4.5047,4.5152,4.5153,4.5298,4.53,0,0,0,0,0,0,0,0,0,0,0,4.5022,4.5023,4.5025,4.5047,4.5152,4.5153,4.5298,4.5213,0,0,0,0,0,0,0,0,0,0,4.5108,4.5099,4.5023,4.5025,4.5048,4.5152,4.5153,4.5209,4.5218,4.5256,0,4.5294,0,4.53,4.531,4.5311,0,0,0,4.5038,4.5091,4.5111,4.5025,4.5049,4.5152,4.5102,4.5214,4.5225,4.5268,4.5296,4.5301,4.5302,4.5311,4.5312,4.5561,4.5563,0,0,4.5033,4.5046,4.5104,4.5119,4.5107,4.5099,4.5106,4.522,4.525,4.5297,4.5305,4.5305,4.5312,4.5314,4.556,4.5562,0,0,0,4.5021,4.5042,4.5059,4.5113,4.5132,4.5102,4.511,4.5245,4.525,4.5306,4.5306,4.5313,4.5315,4.5558,4.556,4.565,0,0,0,4.5017,4.5035,4.5057,4.5066,4.513,4.5191,4.5133,4.5242,4.5255,4.5306,4.5313,4.5317,4.5556,4.5559,4.5644,4.5689,0,0,0,4.5012,4.5034,4.5054,4.5066,4.5113,4.5188,4.5199,4.5244,4.5255,4.5311,4.5317,4.5555,4.5559,4.5638,4.568,4.5758,0,0,0,4.5009,4.5131,4.5055,4.5191,4.5112,4.5245,4.5198,4.5296,4.5354,4.5314,4.5557,4.556,4.5636,4.5674,4.5752,4.5825,4.5857,0,0,4.5169,4.515,4.5229,4.5165,4.5315,4.5227,4.5388,4.5428,4.542,4.5514,4.552,4.5646,4.5679,4.5756,4.6034,4.606,0,0,0,4.5284,4.5341,4.5378,4.5436,4.5471,4.5504,4.5519,4.5533,4.5612,4.5472,4.5695,4.5715,4.5759,4.5793,4.5815,4.5851,4.5577,4.5577,4.5576,4.5529,4.5514,4.5643,4.5641,4.5698,4.5712,4.5755,4.5776,4.5743,4.5796,4.5823,4.5994,4.6035,4.6051,4.6089,4.5862,4.5862,4.5862,4.5863,4.5761,4.5839,4.5794,4.5903,4.5885,4.5975,4.5992,4.5966,4.6045,4.5972,4.6011,4.5931,4.608,4.6112,4.5869,4.5868,4.5867,4.5867,4.5866,4.5919,4.5953,4.5971,4.6053,4.6117,4.6109,4.6188,4.6169,4.6151,4.6189,4.6215,4.6213,4.6208,4.6203,4.6204,4.6205,4.6205,4.6206,4.6206,4.6074,4.6092,4.6162,4.621,4.6244,4.6287,4.6302,4.6334,4.6364,4.6343,4.6343,4.6304,4.6098,4.6046,4.6215,4.6213,4.6212,4.6211,4.6211,4.6313,4.6256,4.6365,4.64,4.6454,4.6518,4.6493,4.656,4.6583,4.6622,4.6575,4.6427,4.6404,4.6387,4.6343,4.6579,4.6579,4.6579,4.6579,4.6445,4.6433,4.6539,4.6596,4.6648,4.6637,4.6757,4.6769,4.6772,4.6785,4.6748,4.6689,4.6673,4.666,4.6637,4.6596,4.6891,4.6891,4.6891,4.659,4.6582,4.669,4.6695,4.6736,4.677,4.6881,4.6945,4.6936,4.6904,4.6794,4.6781,4.6686,4.6656,4.6619,4.6584,4.6508,0,0]}]]